Weather History for Williamtown, NW

Change the Weather History Date:

Saturday, October 20, 2012

  Actual Average Record
Temperature  
Mean Temperature 76 °F -  
Max Temperature 98 °F - - ()
Min Temperature 55 °F - - ()
Cooling Degree Days 12    
Growing Degree Days 26 (Base 50)    
Moisture  
Dew Point 54 °F    
Average Humidity 61    
Maximum Humidity 94    
Minimum Humidity 8    
Precipitation  
Precipitation 0.00 in - - ()
Sea Level Pressure  
Sea Level Pressure 29.81 in    
Wind  
Wind Speed 9 mph ()    
Max Wind Speed 22 mph    
Max Gust Speed 33 mph    
Visibility 5.6 miles    
Events Rain    
T = Trace of Precipitation, MM = Missing Value Source: Averaged Metar Reports

Daily Weather History Graph

Daily Weather History Graph

Search for Another Location

Airport:

Trip Planner

Search our weather history database for the weather conditions in past years. The results will help you decide how hot, cold, wet, or windy it might be!

Date:

Astronomy

Oct. 20, 2012 Rise Set
Actual Time 6:06 AM AEDT 7:08 PM AEDT
Civil Twilight 5:41 AM AEDT 7:34 PM AEDT
Nautical Twilight 5:10 AM AEDT 8:04 PM AEDT
Astronomical Twilight 4:39 AM AEDT 8:35 PM AEDT
Moon 9:54 AM AEDT (10/20) No Moon Set
Length of Visible Light 13h 53m
Length of Day
13h 02m
Waxing Crescent, 27% of the Moon is Illuminated
Oct 20
Waxing Crescent
Oct 22
First Quarter
Oct 30
Full
Nov 7
Last Quarter
Nov 14
New

Hourly Weather History & Observations

Time (AEDT) Temp. Heat Index Dew Point Humidity Pressure Visibility Wind Dir Wind Speed Gust Speed Precip Events Conditions
12:00 AM 60 °F - 54 °F 76% 29.85 in - Calm Calm - -  
12:00 AM 60.8 °F - 55.4 °F 82% 29.83 in 6.2 mi Calm Calm - N/A   Unknown
12:30 AM 59.0 °F - 55.4 °F 88% 29.83 in 6.2 mi NE 2.3 mph - N/A   Unknown
1:00 AM 59.0 °F - 53.6 °F 82% 29.83 in 6.2 mi North 1.2 mph - N/A   Unknown
1:30 AM 59.0 °F - 53.6 °F 82% 29.80 in 6.2 mi Calm Calm - N/A   Unknown
2:00 AM 57 °F - 53 °F 84% 29.81 in - North 3.5 mph - -  
2:00 AM 57.2 °F - 53.6 °F 88% 29.80 in 6.2 mi North 3.5 mph - N/A   Unknown
2:30 AM 57.2 °F - 55.4 °F 94% 29.80 in 6.2 mi North 2.3 mph - N/A   Unknown
3:00 AM 57.2 °F - 53.6 °F 88% 29.77 in 6.2 mi Calm Calm - N/A   Unknown
3:30 AM 55.4 °F - 53.6 °F 94% 29.77 in 6.2 mi NNW 2.3 mph - N/A   Unknown
4:00 AM 59.0 °F - 55.4 °F 88% 29.74 in 6.2 mi NW 8.1 mph - N/A   Unknown
4:30 AM 60.8 °F - 55.4 °F 82% 29.74 in 6.2 mi NW 6.9 mph - N/A   Unknown
5:00 AM 62 °F - 55 °F 72% 29.75 in - NNW 8.1 mph - -  
5:00 AM 62.6 °F - 55.4 °F 77% 29.74 in 6.2 mi NNW 8.1 mph - N/A   Unknown
5:30 AM 60.8 °F - 55.4 °F 82% 29.74 in 6.2 mi NW 5.8 mph - N/A   Unknown
6:00 AM 60 °F - 55 °F 80% 29.75 in - WNW 6.9 mph - -  
6:00 AM 59.0 °F - 55.4 °F 88% 29.74 in 6.2 mi WNW 6.9 mph - N/A   Unknown
7:00 AM 62.6 °F - 55.4 °F 77% 29.74 in 6.2 mi NW 10.4 mph - N/A   Unknown
7:30 AM 66.2 °F - 55.4 °F 68% 29.74 in 6.2 mi NW 10.4 mph - N/A   Unknown
8:00 AM 71 °F - 56 °F 48% 29.76 in - NW 10.4 mph - -  
8:00 AM 71.6 °F - 55.4 °F 57% 29.74 in 6.2 mi NW 10.4 mph - N/A   Unknown
9:00 AM 75 °F - 54 °F 38% 29.78 in - NNW 13.8 mph - -  
9:00 AM 75.2 °F - 55.4 °F 50% 29.77 in 6.2 mi NNW 13.8 mph - N/A   Unknown
9:30 AM 80.6 °F 80.3 °F 53.6 °F 39% 29.77 in 6.2 mi NW 16.1 mph - N/A   Unknown
9:58 AM 86.0 °F - 46.4 °F 25% 29.77 in 6.2 mi WNW 20.7 mph - N/A   Unknown
10:00 AM 87.8 °F - 46.4 °F 24% 29.77 in 6.2 mi WNW 21.9 mph - N/A   Unknown
10:27 AM 89.6 °F - 44.6 °F 21% 29.77 in 6.2 mi WNW 21.9 mph 33.4 mph N/A   Unknown
10:30 AM 91.4 °F - 44.6 °F 20% 29.77 in 6.2 mi WNW 21.9 mph - N/A   Unknown
11:00 AM 92 °F - 43 °F 10% 29.77 in - WNW 19.6 mph - -  
11:00 AM 91.4 °F - 42.8 °F 18% 29.74 in 6.2 mi WNW 19.6 mph - N/A   Unknown
11:30 AM 93.2 °F - 37.4 °F 14% 29.74 in 6.2 mi West 18.4 mph - N/A   Unknown
12:00 PM 95 °F - 40 °F 8% 29.75 in - West 12.7 mph - -  
12:00 PM 95.0 °F - 41.0 °F 15% 29.74 in 6.2 mi West 12.7 mph - N/A   Unknown
12:30 PM 96.8 °F - 37.4 °F 13% 29.71 in 6.2 mi NW 16.1 mph - N/A   Unknown
1:00 PM 98.6 °F - 32.0 °F 10% 29.71 in 6.2 mi WNW 17.3 mph - N/A   Unknown
1:38 PM 89.6 °F - 44.6 °F 21% 29.74 in 6.2 mi SSE 15.0 mph - N/A   Unknown
2:00 PM 84 °F - 53 °F 24% 29.75 in - SSE 19.6 mph - -  
2:00 PM 84.2 °F - 51.8 °F 33% 29.74 in 6.2 mi SSE 19.6 mph - N/A   Unknown
2:30 PM 80.6 °F - 51.8 °F 37% 29.77 in 6.2 mi SSE 18.4 mph - N/A   Unknown
3:00 PM 78 °F - 56 °F 36% 29.78 in - South 19.6 mph - -  
3:00 PM 77.0 °F - 55.4 °F 47% 29.77 in 6.2 mi South 19.6 mph - N/A   Unknown
3:30 PM 77.0 °F - 55.4 °F 47% 29.77 in 5.0 mi South 17.3 mph - N/A Rain Light Rain Showers
3:52 PM 75.2 °F - 55.4 °F 50% 29.77 in 3.7 mi South 16.1 mph - N/A   Unknown
4:00 PM 75.2 °F - 55.4 °F 50% 29.77 in 5.0 mi South 16.1 mph - N/A   Unknown
4:07 PM 75.2 °F - 55.4 °F 50% 29.77 in 6.2 mi South 16.1 mph - N/A   Unknown
4:23 PM 73.4 °F - 55.4 °F 53% 29.77 in 3.7 mi South 15.0 mph - N/A   Unknown
4:30 PM 73.4 °F - 57.2 °F 57% 29.77 in 3.7 mi South 17.3 mph - N/A   Unknown
5:00 PM 72 °F - 59 °F 55% 29.81 in - South 19.6 mph - -  
5:00 PM 71.6 °F - 59.0 °F 64% 29.80 in 6.2 mi South 19.6 mph - N/A   Unknown
5:01 PM 71.6 °F - 59.0 °F 64% 29.80 in 6.2 mi South 18.4 mph - N/A   Unknown
5:11 PM 71.6 °F - 60.8 °F 69% 29.80 in 3.7 mi South 18.4 mph - N/A   Unknown
5:30 PM 69.8 °F - 62.6 °F 78% 29.83 in 3.1 mi South 19.6 mph - N/A   Unknown
5:46 PM 69.8 °F - 62.6 °F 78% 29.83 in 4.3 mi South 18.4 mph - N/A   Scattered Clouds
5:56 PM 69.8 °F - 62.6 °F 78% 29.83 in 5.0 mi South 18.4 mph - N/A   Mostly Cloudy
6:00 PM 69 °F - 62 °F 72% 29.85 in 4 mi South 17.3 mph - -  
6:00 PM 68.0 °F - 62.6 °F 83% 29.83 in 4.3 mi South 17.3 mph - N/A   Mostly Cloudy
6:30 PM 68.0 °F - 60.8 °F 78% 29.86 in 3.7 mi South 13.8 mph - N/A   Mostly Cloudy
6:42 PM 68.0 °F - 60.8 °F 78% 29.86 in 5.0 mi South 16.1 mph - N/A   Mostly Cloudy
6:54 PM 68.0 °F - 60.8 °F 78% 29.86 in 6.2 mi South 17.3 mph - N/A   Mostly Cloudy
7:00 PM 68.0 °F - 60.8 °F 78% 29.89 in 6.2 mi South 13.8 mph - N/A   Mostly Cloudy
7:30 PM 66.2 °F - 60.8 °F 83% 29.89 in 3.7 mi South 12.7 mph - N/A   Mostly Cloudy
7:44 PM 66.2 °F - 59.0 °F 78% 29.92 in 4.3 mi South 15.0 mph - N/A   Mostly Cloudy
7:49 PM 66.2 °F - 59.0 °F 78% 29.92 in 3.7 mi South 15.0 mph - N/A   Scattered Clouds
8:00 PM 66 °F - 59 °F 72% 29.93 in - South 12.7 mph - -  
8:00 PM 66.2 °F - 59.0 °F 78% 29.92 in 3.1 mi South 12.7 mph - N/A   Scattered Clouds
8:17 PM 66.2 °F - 59.0 °F 78% 29.92 in 6.2 mi South 12.7 mph - N/A   Scattered Clouds
8:30 PM 66.2 °F - 59.0 °F 78% 29.92 in 6.2 mi South 10.4 mph - N/A   Mostly Cloudy
9:00 PM 64 °F - 58 °F 77% 29.95 in - South 6.9 mph - -  
9:00 PM 64.4 °F - 59.0 °F 83% 29.95 in 6.2 mi South 6.9 mph - N/A   Scattered Clouds
10:00 PM 64.4 °F - 59.0 °F 83% 29.95 in 6.2 mi SW 6.9 mph - N/A   Overcast
10:30 PM 66.2 °F - 57.2 °F 73% 29.95 in 6.2 mi South 6.9 mph - N/A   Overcast
11:00 PM 65 °F - 58 °F 71% 29.97 in - SSW 8.1 mph - -  
11:00 PM 66.2 °F - 57.2 °F 73% 29.95 in 6.2 mi SSW 8.1 mph - N/A   Overcast
11:30 PM 66.2 °F - 57.2 °F 73% 29.95 in 6.2 mi South 8.1 mph - N/A   Overcast